VK4RM-13 Weather Reports


time (UTC)temp
C
wind
direction
speed
KPH
gust
KPH
rain 1hr
cm
rain 24hr
cm
rain mn
cm
humidity
%
barometer
mb
20260504223639 22 327 0.0 0.0 0.00 0.03 0.03 87 996.4
20260504222639 21 15 0.0 0.0 0.00 0.03 0.03 93 996.6
20260504221639 21 34 0.0 0.0 0.00 0.03 0.03 97 996.5
20260504220639 21 34 0.0 0.0 0.00 0.03 0.03 97 996.5
20260504215639 20 34 0.0 0.0 0.00 0.03 0.03 97 996.4
20260504214639 20 34 0.0 0.0 0.00 0.03 0.03 97 996.4
20260504213639 18 34 0.0 0.0 0.00 0.03 0.03 97 996.5
20260504212639 18 34 0.0 0.0 0.00 0.03 0.03 97 996.3
20260504211639 17 34 0.0 0.0 0.00 0.03 0.03 97 996.4
20260504183640 16 34 0.0 0.0 0.00 0.03 0.03 95 994.6
20260504182640 16 34 0.0 0.0 0.00 0.03 0.03 95 994.5
20260504181640 16 34 0.0 0.0 0.00 0.03 0.03 95 994.7
20260504180640 16 34 0.0 0.0 0.00 0.03 0.03 95 994.7
20260504175640 16 34 0.0 0.0 0.03 0.03 0.03 95 994.6
20260504174640 16 34 0.0 0.0 0.03 0.03 0.03 95 994.6
20260504173640 16 34 0.0 0.0 0.03 0.03 0.03 95 994.7
20260504172640 16 34 0.0 0.0 0.03 0.03 0.03 95 994.7
20260504171640 16 34 0.0 0.0 0.03 0.03 0.03 95 994.7
20260504170640 16 34 0.0 0.0 0.03 0.03 0.03 94 994.8
20260504150640 16 34 0.0 0.0 0.00 0.00 0.00 94 995.6
20260504140640 16 34 0.0 0.0 0.00 0.00 0.00 93 995.9
20260504110640 17 34 0.0 0.0 0.00 0.00 0.00 92 996.8
20260504081641 20 34 0.0 0.0 0.00 0.28 0.00 88 995.2
20260504080641 20 34 0.0 0.0 0.00 0.28 0.00 88 995.2
20260504050641 27 336 3.2 9.7 0.00 0.61 0.46 65 993.9
20260504045641 27 281 1.6 9.7 0.00 0.66 0.46 64 993.8
20260504044641 27 285 3.2 9.7 0.00 0.66 0.46 63 993.8
20260504043641 27 355 1.6 9.7 0.00 0.66 0.46 61 993.9
20260504042641 27 296 3.2 9.7 0.00 0.66 0.46 66 993.9
20260504041641 26 0 0.0 0.0 0.00 0.66 0.46 67 993.9
20260504040641 27 0 0.0 8.0 0.00 0.66 0.46 66 993.9
20260504035641 27 312 3.2 9.7 0.00 0.69 0.46 65 993.8
20260504034641 27 294 1.6 8.0 0.00 0.69 0.46 66 993.9
20260504033641 27 5 1.6 11.3 0.00 0.69 0.46 66 993.9
20260504032641 27 334 3.2 11.3 0.00 0.69 0.46 63 994.0
20260504031641 27 30 0.0 6.4 0.00 0.69 0.46 66 994.2
20260504030641 27 342 0.0 0.0 0.00 0.69 0.46 66 994.4
20260504025641 27 350 1.6 3.2 0.00 0.81 0.46 62 994.5
20260504024641 28 355 3.2 9.7 0.00 0.81 0.46 62 994.7
20260504023641 27 286 1.6 9.7 0.00 0.81 0.46 64 995.0
20260504022641 26 34 1.6 3.2 0.00 0.81 0.46 70 995.1
20260504021641 26 5 1.6 3.2 0.00 0.81 0.46 70 995.2
20260504020641 26 16 0.0 3.2 0.00 0.81 0.46 69 995.4
20260504014641 26 332 0.0 3.2 0.00 0.81 0.46 69 995.8
20260504013642 26 305 1.6 9.7 0.00 0.81 0.46 69 996.1
20260504012642 26 40 1.6 3.2 0.00 0.81 0.46 72 996.2
20260504011642 26 13 3.2 8.0 0.00 0.81 0.46 70 996.3
20260504010642 26 342 0.0 1.6 0.00 0.81 0.46 72 996.4
20260504005642 26 350 0.0 9.7 0.00 0.81 0.46 70 996.5
20260504004642 26 348 1.6 8.0 0.00 0.81 0.46 71 996.7
20260504003642 26 310 3.2 12.9 0.00 0.81 0.46 72 996.8
20260504002642 26 13 4.8 16.1 0.00 0.81 0.46 71 996.8
20260504001642 26 31 1.6 9.7 0.00 0.81 0.46 72 996.8
20260504000642 25 290 1.6 6.4 0.00 0.81 0.46 75 996.9
20260503235642 25 9 1.6 8.0 0.00 0.81 0.46 76 996.9
20260503234642 24 350 3.2 8.0 0.00 0.81 0.46 77 997.0
20260503233642 24 339 3.2 9.7 0.00 0.81 0.46 77 997.0
20260503232642 23 22 1.6 11.3 0.00 0.81 0.46 79 997.0
20260503231642 23 327 1.6 11.3 0.00 0.81 0.46 79 996.9
20260503230642 23 355 1.6 9.7 0.00 0.81 0.46 80 996.8
20260503225642 23 343 3.2 12.9 0.00 0.81 0.46 80 996.8
20260503224642 23 335 1.6 9.7 0.00 0.81 0.46 81 996.8